GFSCGP_sfc_rhum_021.txt.gz
RH
7 6 7 7 8 9 10 11 11 10 10 14 16 16 18 19 19 17 16 21 21 23 24 25 28 27 30 33 42 48 54 63 54 52 55 57 50 48 44 44 51 62 58 62
7 7 5 6 7 8 9 11 11 10 11 12 15 16 16 19 21 20 18 19 20 21 22 26 29 29 31 37 43 54 59 65 63 55 59 47 45 35 38 48 63 55 55 58
6 5 4 5 7 8 9 10 11 11 12 13 15 19 16 15 19 19 18 17 18 19 20 24 29 31 32 37 44 54 64 67 66 65 57 55 51 46 42 38 43 52 53 52
5 4 4 5 6 7 10 8 9 10 23 23 14 20 19 15 16 19 19 18 16 18 18 19 25 30 31 35 39 52 62 68 65 70 61 68 52 47 37 39 35 39 45 46
7 5 5 6 6 6 9 8 10 10 11 17 16 16 18 15 16 15 17 18 17 15 17 18 20 26 29 31 35 43 61 69 68 70 71 54 62 40 37 36 55 58 61 49
6 4 4 4 4 5 6 9 10 9 10 20 16 21 16 20 16 14 13 16 18 16 16 18 19 21 26 28 32 37 59 72 73 69 72 75 69 60 44 47 46 42 42 46
9 7 4 4 5 5 6 9 15 16 16 16 15 16 26 12 12 12 12 11 14 17 15 17 21 21 26 30 34 37 58 74 73 70 68 72 72 69 67 59 48 49 37 39
12 12 7 4 5 6 7 8 14 25 18 14 12 18 15 11 9 10 10 8 10 16 17 17 20 21 24 29 38 42 55 70 71 69 73 74 75 55 53 58 43 38 33 36
11 12 6 5 5 4 6 9 7 11 11 13 11 12 11 11 10 10 10 8 8 13 16 16 17 18 21 29 38 44 53 66 69 66 74 75 74 71 56 63 64 44 50 34
10 13 8 5 5 4 5 6 10 10 23 22 13 14 13 15 13 11 10 9 8 9 14 15 16 18 21 23 31 39 49 63 65 63 66 65 69 71 68 64 66 62 55 52
7 10 10 8 8 8 6 6 8 9 12 16 17 14 9 13 13 12 10 9 8 8 12 14 15 17 21 22 25 34 43 54 61 60 63 66 65 63 68 61 63 65 62 62
8 9 14 10 7 6 5 6 8 13 21 13 13 12 7 8 9 9 9 8 7 8 8 12 14 16 18 24 23 28 34 40 49 54 62 64 66 64 63 66 62 67 68 67
8 12 15 15 8 7 8 7 5 6 9 21 16 14 9 8 9 9 8 8 9 8 9 9 12 16 20 24 30 27 31 30 36 49 51 60 65 65 65 67 66 67 71 72
20 10 16 14 15 9 10 7 6 5 10 12 13 14 11 10 10 10 10 9 9 9 14 15 12 15 21 26 35 35 31 28 32 37 43 58 66 67 62 65 69 71 72 73
12 19 14 12 10 10 8 6 6 7 8 11 10 12 12 11 10 11 10 10 10 10 11 18 18 16 26 30 37 38 34 37 34 41 45 55 64 66 68 68 70 70 74 71
13 20 18 16 10 10 10 8 7 7 6 7 8 10 8 8 9 10 10 10 10 10 9 15 22 22 28 32 37 41 41 38 40 46 47 55 64 67 70 71 71 76 75 74
16 16 21 22 14 14 16 12 10 10 8 9 10 10 8 9 11 11 15 11 11 11 12 10 21 27 31 31 39 41 45 42 47 51 52 57 64 70 74 73 76 80 78 75
18 26 20 22 22 28 14 10 9 10 10 8 9 9 8 8 8 10 11 12 12 11 11 10 15 22 26 26 30 40 39 51 55 59 57 60 65 70 77 79 80 84 78 77
16 20 21 24 23 21 18 17 18 20 18 10 10 10 8 7 6 10 8 9 11 13 12 11 12 17 26 30 35 45 47 49 54 59 62 62 64 71 75 79 81 81 80 78
19 26 24 26 29 30 21 26 24 23 21 12 14 16 11 8 9 10 11 8 8 10 12 13 13 18 23 32 30 47 50 55 59 59 60 63 66 70 73 75 79 82 81 75
21 26 28 27 28 20 30 24 23 32 28 34 29 26 24 21 11 10 10 10 11 14 17 20 22 23 37 38 40 53 51 55 52 50 54 61 64 71 73 82 79 80 85 82
24 27 22 25 30 35 28 26 30 45 39 35 32 27 26 24 16 10 24 25 23 22 21 24 27 32 37 44 53 58 60 58 58 58 60 68 72 63 66 79 80 88 88 86
22 20 21 21 22 41 35 40 36 34 38 36 32 28 24 22 22 26 30 31 30 31 31 29 37 47 45 54 57 61 69 66 63 64 76 73 75 74 80 86 90 90 86 78
21 18 22 41 46 49 38 35 33 31 34 33 29 28 26 31 33 36 36 36 34 34 38 40 45 50 55 60 63 71 69 70 71 76 84 86 87 85 80 82 83 84 88 79
97 79 36 47 48 44 44 41 36 34 30 33 41 40 42 41 46 46 47 41 38 38 38 41 48 53 61 64 67 66 69 70 72 78 81 86 82 84 80 78 73 78 76 82
94 94 96 60 43 47 52 40 36 34 35 33 32 36 39 41 46 45 54 50 42 43 44 45 54 61 63 67 70 71 69 70 73 74 72 74 74 69 61 62 63 96 94 99

GFSCGP_sfc_rhum_024.txt.gz
RH
9 9 10 8 8 9 8 10 11 11 14 12 20 46 51 33 18 15 18 20 21 23 24 25 27 29 32 38 50 58 64 71 68 68 67 69 70 69 66 66 74 76 73 73
8 10 7 6 7 8 9 10 11 10 16 16 14 28 33 22 19 16 16 19 20 21 23 28 31 30 33 42 51 62 66 75 70 67 72 68 69 61 61 60 70 69 76 78
8 6 5 5 6 9 9 10 12 12 12 12 13 16 15 17 18 17 16 16 17 20 21 28 31 33 33 43 53 62 69 73 72 72 71 74 74 73 68 73 72 68 68 70
8 5 5 5 6 8 11 8 9 10 14 20 15 20 23 18 21 18 17 16 16 18 19 20 27 33 33 40 47 62 69 73 74 74 77 78 67 69 65 67 67 69 69 68
9 6 5 5 5 6 9 8 9 9 12 18 23 23 21 20 23 20 17 16 15 16 16 18 22 30 32 36 43 56 70 75 74 76 76 76 73 59 63 63 75 78 75 65
7 5 4 4 4 4 6 8 8 8 10 21 20 24 24 22 26 19 16 15 17 15 16 18 19 26 31 32 39 48 70 78 76 77 77 80 77 72 68 69 69 70 68 70
8 7 5 4 5 4 5 8 14 16 16 17 14 23 24 18 17 16 19 21 16 16 16 19 21 24 34 36 40 47 70 79 78 75 78 78 79 78 77 77 64 66 60 62
12 12 6 5 6 6 5 6 13 25 19 15 12 16 19 17 15 17 21 21 13 16 18 20 24 24 32 36 42 48 69 77 77 76 79 82 79 71 68 71 64 60 58 58
12 12 6 5 4 4 6 8 6 10 11 14 12 12 10 14 14 17 16 12 12 16 17 18 21 23 26 36 43 49 67 76 77 76 79 81 81 78 70 75 74 65 68 64
10 13 7 6 5 4 5 5 8 9 21 24 14 17 16 20 26 19 14 13 10 12 15 17 17 22 26 31 39 46 58 72 75 74 76 74 78 78 74 74 77 71 73 68
7 11 10 8 9 8 6 6 7 7 10 16 19 16 12 17 19 17 15 13 11 9 13 16 17 20 25 28 35 42 50 65 72 72 75 77 76 76 76 70 72 73 74 75
7 9 14 9 7 6 6 7 7 12 21 13 15 14 8 12 13 14 13 12 10 11 10 13 16 19 23 27 30 37 42 48 61 68 73 75 77 77 76 74 71 72 75 78
9 11 16 14 8 7 8 7 6 6 7 20 17 15 10 14 14 14 13 12 14 16 17 15 15 20 25 27 33 35 39 40 49 62 65 72 74 76 77 78 74 73 75 75
15 9 16 13 15 10 12 8 7 6 10 11 13 15 13 15 17 16 15 13 13 19 21 18 20 21 23 29 35 37 37 36 43 54 60 70 74 74 72 75 78 74 76 77
10 21 14 11 9 9 9 9 8 10 11 12 10 14 14 13 16 16 16 16 16 20 20 28 20 25 30 33 38 37 36 41 41 53 59 67 72 73 76 76 77 75 78 79
12 22 18 14 9 9 11 8 7 8 8 8 8 10 9 11 12 15 17 14 17 18 17 24 30 30 34 35 40 39 40 41 44 51 58 64 70 75 77 77 76 79 79 82
18 16 26 23 13 12 14 12 10 8 7 8 11 12 11 12 13 15 25 18 17 16 17 18 28 33 37 35 41 43 43 44 49 56 57 63 69 75 78 77 78 80 81 84
22 27 22 23 23 29 14 9 9 9 9 7 9 10 10 11 11 11 14 16 21 17 16 19 13 23 32 26 30 44 41 50 56 58 61 63 69 75 78 79 80 81 82 84
15 24 23 27 22 18 14 12 12 12 16 11 10 12 10 9 9 13 10 11 14 16 19 18 12 11 28 29 36 46 50 49 53 59 65 64 69 77 79 81 82 82 84 86
13 26 24 25 28 30 21 11 13 17 24 16 20 18 16 17 21 18 14 10 11 11 13 18 15 12 17 34 30 48 51 57 58 59 61 67 72 76 80 82 85 85 86 85
26 28 26 26 28 20 28 19 18 34 32 31 28 26 24 27 27 30 23 23 12 16 14 16 26 29 38 38 39 55 55 60 58 60 63 71 72 78 81 85 85 86 86 86
32 31 28 31 35 38 21 23 35 36 35 31 30 28 29 29 27 25 24 24 24 29 18 22 33 40 43 47 59 64 67 67 69 69 69 75 79 73 77 86 88 89 90 91
28 24 27 30 30 49 35 41 36 32 36 32 30 25 26 25 25 20 29 30 25 28 34 26 37 57 56 63 66 69 77 74 71 73 77 79 81 79 85 88 93 95 92 86
29 28 23 37 37 37 33 35 31 30 31 35 34 32 29 27 30 34 35 34 34 40 44 49 53 62 67 69 70 75 73 73 74 81 84 85 89 90 89 88 88 94 91 90
82 73 41 30 43 44 36 34 31 33 40 46 49 53 54 53 53 48 47 53 51 52 54 62 69 70 76 80 78 76 77 81 85 86 85 85 85 84 85 88 91 84 87 92
82 84 86 85 82 64 50 36 34 38 38 40 44 49 52 62 72 71 61 57 54 58 61 66 71 76 79 79 82 81 80 82 83 83 82 84 84 77 76 76 80 97 93 93

GFSCGP_sfc_rhum_030.txt.gz
RH
16 18 18 20 17 14 14 16 17 14 13 29 29 27 29 37 40 44 44 44 42 40 37 39 48 48 48 60 64 63 63 66 68 91 92 96 93 90 90 82 78 80 88 88
18 18 16 15 14 13 12 13 14 14 12 27 34 27 25 32 36 38 40 41 40 39 38 40 46 48 48 58 62 62 69 69 70 72 73 85 90 90 85 87 88 86 83 87
14 15 12 14 15 14 12 13 12 15 15 28 33 42 40 30 30 32 34 35 35 37 37 39 41 46 49 50 62 61 70 74 71 76 82 93 92 94 92 89 86 83 76 87
14 12 13 13 15 14 17 10 10 13 19 30 29 48 47 36 30 30 32 34 34 35 33 36 38 46 46 50 54 57 68 79 74 76 75 75 85 87 88 87 76 86 87 86
20 15 14 14 13 12 14 11 12 13 19 30 40 47 45 41 42 36 32 31 31 32 32 34 36 37 43 45 53 58 64 79 77 75 71 74 80 78 84 88 83 94 91 87
15 12 12 12 11 11 10 10 12 18 20 38 23 34 44 33 37 32 30 27 29 29 30 30 33 34 40 44 51 58 66 74 78 76 75 73 76 84 86 89 96 96 84 86
19 14 12 11 14 11 10 14 19 19 20 24 28 41 29 26 29 28 26 27 25 26 28 30 34 35 40 46 53 59 67 71 74 78 75 74 78 81 83 88 89 95 91 96
24 25 14 10 12 13 12 9 16 24 29 26 22 38 27 22 23 25 23 24 22 23 26 29 32 36 37 44 55 62 66 67 72 72 78 77 76 74 80 84 84 80 74 78
26 22 16 11 10 10 13 12 8 17 39 29 26 26 23 25 25 26 24 24 24 21 22 25 30 34 36 44 54 63 67 65 73 72 72 72 76 75 84 88 81 78 72 73
16 26 16 12 10 10 9 10 16 17 14 16 21 24 23 24 27 28 26 24 23 22 21 22 24 31 36 38 48 59 66 65 69 72 71 72 72 72 82 89 82 74 74 74
10 17 16 19 16 14 12 11 24 11 13 14 21 14 16 18 25 28 27 23 22 22 23 21 22 26 32 37 46 60 66 64 69 70 71 72 75 74 71 88 83 80 70 76
13 12 15 13 13 12 11 11 12 13 18 22 11 12 13 13 21 28 25 22 20 20 25 24 21 22 30 38 42 54 68 66 67 71 72 73 75 78 77 73 82 80 77 73
39 18 17 16 12 11 15 12 9 17 19 14 22 15 12 13 27 30 28 25 25 27 29 28 28 24 29 37 40 50 63 66 66 70 72 76 78 81 82 76 73 85 77 84
44 41 21 17 16 14 17 13 11 9 11 13 13 18 13 18 25 34 27 24 25 25 24 24 26 27 28 37 40 47 55 64 67 70 72 76 78 81 80 78 77 79 80 83
58 58 33 26 15 11 14 14 12 11 8 10 10 12 12 11 19 30 28 24 23 20 18 19 20 26 29 38 41 44 51 62 65 72 74 75 76 77 81 84 82 79 79 79
63 63 45 38 21 12 12 12 13 11 9 9 13 13 10 9 18 21 27 24 23 22 25 29 21 22 30 36 41 44 48 61 64 72 75 75 79 80 82 85 88 85 90 82
71 65 54 50 26 14 16 13 14 14 12 10 13 13 16 16 22 25 32 30 22 22 19 35 28 25 29 33 38 44 47 54 65 69 73 75 79 84 85 85 89 93 87 94
58 59 56 52 42 29 12 10 9 13 14 14 11 12 14 13 15 22 24 26 24 20 24 34 36 29 27 30 36 41 45 52 65 68 72 75 79 83 84 88 90 91 90 86
41 43 53 53 58 28 23 17 12 15 16 20 16 15 13 16 24 40 33 25 13 18 21 25 34 37 38 30 34 41 48 52 56 66 69 73 76 81 86 89 90 89 92 89
29 29 40 42 47 43 26 20 19 20 30 43 20 25 25 23 27 37 44 36 33 37 27 20 32 42 34 38 34 38 46 51 56 56 60 68 73 78 82 86 87 86 86 90
80 76 57 45 40 38 36 26 23 29 34 52 45 42 37 43 37 39 46 42 39 44 42 30 28 31 44 42 40 41 45 48 47 50 53 60 69 74 77 83 85 84 88 96
85 93 81 55 57 45 49 55 28 40 67 47 47 51 48 50 61 55 55 48 43 47 56 45 33 32 30 56 49 46 48 45 47 49 54 63 69 72 78 85 88 92 97 98
88 75 76 78 80 70 56 91 83 76 86 88 76 67 69 77 83 85 89 91 90 91 93 91 72 84 91 65 57 56 51 49 63 58 64 73 80 79 84 92 97 99 98 99
75 78 80 82 66 91 87 84 81 78 81 76 76 79 74 81 83 89 91 95 97 98 99 98 98 97 94 93 80 65 76 64 67 68 90 95 94 96 95 98 98 99 99 99
84 83 91 90 80 89 82 84 83 78 73 71 70 76 82 87 95 92 96 96 97 98 98 98 99 99 99 99 97 95 90 81 92 94 95 99 99 99 100 100 100 99 100 99
96 97 93 98 96 99 95 87 64 61 61 68 66 68 72 79 89 91 96 97 97 96 96 97 98 98 99 99 98 99 96 94 97 99 99 99 99 99 99 99 99 98 99 100

GFSCGP_sfc_rhum_033.txt.gz
RH
22 26 30 25 21 18 17 18 18 17 21 33 38 38 50 46 45 45 44 48 53 55 54 50 53 53 55 58 62 68 67 70 74 83 91 97 91 90 95 88 82 84 86 90
23 23 21 18 20 17 16 17 16 16 14 21 27 37 47 47 47 45 44 44 44 46 47 49 53 54 56 60 61 65 68 70 73 72 72 85 92 92 88 90 86 87 84 87
20 21 15 16 18 18 19 18 16 15 19 25 38 47 49 48 46 45 44 42 41 42 42 50 51 55 54 59 62 66 67 66 69 68 79 96 95 96 96 94 92 90 86 85
18 14 14 17 18 18 24 15 14 14 19 22 36 58 50 46 50 46 46 46 44 43 40 40 53 55 53 55 61 63 66 66 67 71 73 70 80 83 95 92 89 89 87 87
18 15 14 17 14 16 18 15 15 18 19 26 28 47 46 40 48 44 41 42 42 41 40 40 41 49 51 49 59 64 68 69 67 75 66 72 74 74 91 95 89 93 95 90
14 15 11 13 14 13 15 17 16 22 23 29 16 34 31 43 36 34 32 36 37 37 37 36 36 40 48 48 52 62 69 73 71 74 72 74 72 79 90 95 94 97 98 95
16 13 16 14 17 17 16 20 28 25 27 23 17 32 18 29 29 27 29 28 32 33 34 36 36 38 44 50 52 60 69 76 75 78 76 76 73 76 78 84 90 97 98 98
28 31 16 14 16 18 19 17 30 28 28 22 25 31 21 21 24 25 23 24 26 31 32 34 35 36 39 46 52 58 66 70 76 80 77 76 72 73 74 81 84 86 91 83
27 26 18 14 13 13 18 18 14 20 51 28 28 25 27 22 24 26 29 27 28 28 30 31 32 33 36 42 50 58 64 64 74 76 75 76 75 74 78 87 81 84 86 79
21 29 20 16 14 13 14 13 16 22 21 21 21 25 25 29 21 30 28 30 27 26 27 28 30 31 35 38 45 53 60 62 68 71 71 72 74 74 76 85 86 89 87 81
24 23 21 18 21 17 18 17 22 15 19 18 22 15 18 22 25 29 30 28 26 25 25 26 27 28 32 35 42 53 58 61 64 68 68 69 73 75 79 84 85 82 82 81
43 30 20 18 18 14 13 14 16 20 17 20 12 14 14 14 16 23 27 28 26 25 24 23 24 25 30 36 41 52 57 61 60 64 66 67 68 73 77 81 89 79 76 79
60 58 30 21 24 17 19 16 12 12 19 14 17 18 14 13 16 23 28 30 28 28 29 24 22 24 29 35 41 50 56 60 57 62 65 68 69 77 76 73 80 87 78 75
56 65 49 31 24 19 18 16 15 12 16 14 14 17 19 16 16 20 34 34 32 30 29 27 25 23 26 33 40 49 57 58 57 62 65 69 71 74 78 72 72 81 83 81
66 82 57 44 37 31 24 14 12 16 14 15 13 14 12 14 18 21 25 36 34 32 27 28 27 30 30 34 42 45 54 62 59 63 68 67 70 71 76 78 77 74 82 80
70 75 65 52 31 27 23 17 13 12 13 13 12 16 13 10 14 15 15 24 35 32 26 27 26 29 28 29 39 42 52 63 62 66 70 69 71 74 78 82 84 83 84 81
73 79 75 73 43 38 30 20 15 13 13 14 14 14 12 12 15 14 17 25 28 31 25 26 27 26 28 28 34 41 47 54 66 68 70 72 72 77 80 83 88 89 86 84
72 81 72 74 58 50 22 15 13 13 14 15 14 13 16 10 12 17 22 22 29 29 27 26 32 28 26 28 33 37 44 54 66 69 72 74 76 77 79 83 88 90 88 90
49 53 74 70 68 46 24 22 17 18 18 19 14 15 16 16 25 27 30 26 28 32 26 24 30 34 33 30 35 42 48 52 64 68 71 74 78 80 82 86 87 88 88 89
47 46 49 64 62 54 43 50 44 34 19 14 18 19 18 23 23 16 40 26 22 21 27 28 40 45 43 42 43 48 53 55 66 68 69 70 76 79 84 84 84 85 84 80
74 73 81 68 63 52 49 66 60 37 21 37 33 18 26 22 17 21 44 41 33 36 36 30 39 45 41 42 42 49 52 56 53 58 63 67 71 77 78 82 81 86 87 83
89 89 89 68 77 72 79 75 91 83 92 59 50 50 46 50 50 47 45 42 42 40 51 41 31 32 51 57 46 46 51 50 52 54 58 67 71 75 77 80 86 90 95 93
78 87 91 62 69 83 89 86 82 84 96 82 52 75 63 78 85 84 89 92 95 94 95 95 89 85 91 62 58 51 46 47 50 57 61 63 70 73 73 85 94 97 96 96
67 81 84 84 77 89 89 84 85 86 90 86 89 86 77 93 96 98 98 99 99 99 99 99 99 98 97 98 96 93 84 66 66 61 62 74 80 84 81 91 94 95 96 96
86 86 75 80 88 77 84 84 88 86 76 77 78 85 95 95 99 98 99 99 99 99 99 99 95 96 97 98 98 98 99 89 79 81 76 93 94 96 98 100 98 97 99 99
85 87 82 90 96 94 98 91 87 87 84 82 81 86 86 92 98 96 98 98 98 98 98 99 99 96 99 99 99 98 97 97 99 99 98 99 99 99 99 99 100 100 100 100

GFSCGP_sfc_rhum_036.txt.gz
RH
32 35 33 30 25 22 22 21 21 21 20 32 34 43 59 52 52 56 62 64 64 63 59 59 60 61 65 70 76 79 82 84 85 88 91 94 87 89 89 88 86 89 90 90
27 31 28 24 22 20 20 22 21 19 14 20 22 36 57 54 53 53 57 61 61 59 60 61 61 60 63 70 72 76 79 81 83 80 81 85 85 90 85 88 86 87 88 89
23 24 22 22 25 23 25 22 21 21 17 22 40 44 63 55 55 49 49 53 54 57 60 63 60 60 60 68 71 73 77 77 81 80 84 95 94 95 93 92 90 86 86 87
24 18 19 22 22 21 30 19 17 16 20 22 36 42 62 60 58 52 49 47 49 50 52 56 58 59 60 63 66 70 74 77 78 82 82 84 80 82 81 89 88 87 88 88
21 20 19 20 19 18 21 16 17 17 20 27 32 45 45 60 66 58 52 48 44 42 45 47 52 55 56 58 62 66 73 77 78 81 78 80 80 78 87 92 90 93 92 91
18 17 16 17 16 17 17 19 20 27 26 30 21 27 32 59 58 54 49 47 46 43 41 42 45 48 52 54 60 64 74 78 78 80 79 82 81 85 88 94 91 92 93 92
20 16 18 14 17 19 19 24 34 33 33 26 23 29 19 36 34 42 46 43 43 43 42 43 43 47 54 58 60 65 76 80 78 80 80 79 80 83 86 86 85 93 94 96
23 28 16 16 16 19 21 24 38 36 35 28 27 28 24 20 31 30 31 34 35 39 41 42 43 43 48 56 60 66 75 78 78 80 82 80 81 76 77 82 80 83 86 86
28 26 20 14 16 12 24 22 19 25 51 27 27 26 20 24 23 32 29 28 30 32 37 39 38 39 42 50 58 64 72 76 77 78 81 82 81 81 80 85 84 81 88 84
28 32 23 14 15 16 16 17 24 29 34 32 26 31 26 31 24 26 32 31 28 28 30 33 35 37 39 42 51 58 66 73 72 76 77 76 79 81 80 83 85 85 86 87
50 30 24 22 22 18 21 19 24 21 27 27 28 24 24 26 21 16 17 28 29 29 28 29 32 34 36 39 47 53 60 68 69 75 77 78 78 80 80 81 83 84 87 88
70 47 29 24 23 17 15 20 19 28 26 23 26 21 18 15 20 22 18 18 31 32 30 29 29 31 34 39 43 51 55 59 64 70 76 77 77 80 81 82 81 85 87 88
60 60 36 26 20 22 23 18 15 16 24 22 22 22 14 19 17 18 29 31 39 41 41 34 30 33 36 39 44 48 53 54 57 65 70 74 76 80 82 82 81 84 86 87
58 74 54 48 46 43 37 24 20 15 18 19 17 19 23 18 18 19 24 29 29 38 44 43 34 31 34 39 45 51 53 52 57 60 68 74 76 78 78 80 82 87 85 86
62 70 69 58 49 42 38 33 28 23 16 18 17 18 18 19 18 17 20 32 37 38 42 46 35 31 36 42 47 50 53 60 60 65 67 72 74 74 78 81 81 85 87 84
70 65 75 64 42 38 41 34 28 23 21 19 16 20 16 14 20 21 23 26 34 41 41 44 42 36 39 40 47 50 56 61 64 67 69 71 75 77 80 83 82 84 88 87
77 78 76 68 52 48 40 26 23 23 20 19 21 20 17 18 20 18 20 23 24 33 40 43 43 41 38 37 43 49 54 60 68 69 70 74 76 80 80 82 85 86 86 86
78 84 82 79 65 59 35 29 24 18 16 18 19 17 16 14 15 15 17 15 17 21 36 40 33 33 35 31 33 44 49 64 70 71 72 74 77 79 80 82 87 86 84 86
61 74 79 74 72 39 33 43 62 72 46 19 17 18 19 13 16 23 24 24 20 25 29 33 29 27 33 45 46 55 57 61 71 73 74 76 79 80 81 84 86 85 86 86
60 53 58 80 73 56 57 60 58 68 74 33 32 17 17 23 22 18 26 33 31 31 37 40 39 42 39 42 44 53 57 64 72 74 74 75 78 81 82 82 84 83 85 86
83 72 80 65 75 63 45 76 74 61 47 85 88 92 25 24 16 17 30 41 35 32 31 36 46 51 55 60 54 58 60 63 62 65 71 76 77 81 81 82 81 82 84 87
88 92 93 78 87 64 70 72 76 78 88 85 87 92 88 29 28 36 46 47 45 49 58 49 41 56 62 65 69 71 71 64 69 72 72 77 80 78 76 83 84 85 90 93
82 80 94 67 63 66 89 84 82 89 85 86 88 90 81 34 50 58 72 86 93 94 97 93 97 98 96 91 82 71 81 71 72 76 81 85 84 82 84 87 90 91 93 90
83 82 91 84 64 68 84 89 89 85 83 80 83 95 76 83 90 96 98 99 95 94 95 94 92 93 97 96 95 98 93 83 74 78 82 85 88 90 89 88 89 91 94 96
85 86 89 85 72 79 92 88 92 83 80 82 89 93 95 93 94 95 97 97 96 97 94 90 91 92 98 97 98 98 97 88 85 87 88 96 97 98 99 99 100 100 99 99
82 84 93 85 79 83 92 92 89 85 86 87 94 94 93 93 96 95 96 96 97 97 95 95 94 95 97 98 98 98 99 97 98 99 99 99 99 99 98 98 97 100 100 100